{"data":{"norad_id":57058,"epoch":"2026-09-20T21:56:09.171456Z","epoch_age_seconds":85238,"freshness":"FRESH","line1":"1 57058U 23088L   26263.91399504  .00000369  00000+0  22961-4 0  9996","line2":"2 57058  43.0041  87.7816 0001852 268.5261  91.5378 15.27578288180197","mean_motion":15.27578288,"eccentricity":0.0001852,"inclination_deg":43.0041,"raan_deg":87.7816,"arg_perigee_deg":268.5261,"mean_anomaly_deg":91.5378,"bstar":2.2961e-5,"rev_number":18019,"period_min":94.266854361051,"perigee_km":481.78352977394,"apogee_km":484.32491500272,"semimajor_km":6861.1912223883,"source":"CELESTRAK","updated_at":"2026-09-21T09:00:33.549857Z"}}